[[{"header":{"parameterUnit":"m.s-1","parameterCategory":1,"la1":30.2992,"la2":30.254,"lo1":-89.0895,"lo2":-89.0443,"dy":0.0025,"dx":0.0025,"nx":19,"ny":19,"refTime":"2026-04-14T21:00:00:Z","depth":0,"parameterNumber":2,"parameterNumberName":"U-component_of_WINDS"},"data":[0,0,0,-2.5127,-2.5129,-2.5272,-2.5273,-2.5453,-2.5455,0,0,0,0,0,0,0,0,0,0,0,-2.5081,-2.5082,-2.5126,-2.513,-2.5272,-2.5273,-2.5453,-2.5455,0,0,0,0,0,0,0,0,0,0,0,-2.508,-2.5082,-2.5083,-2.513,-2.5272,-2.5273,-2.5453,-2.5346,0,0,0,0,0,0,0,0,0,0,-2.5208,-2.5162,-2.5081,-2.5083,-2.5131,-2.5272,-2.5273,-2.5341,-2.5353,-2.5387,0,-2.5415,0,-2.5438,-2.5467,-2.5467,0,0,0,-2.5133,-2.5152,-2.5194,-2.5083,-2.5132,-2.5272,-2.5209,-2.5348,-2.5361,-2.5403,-2.5417,-2.5424,-2.5441,-2.5468,-2.5469,-2.5651,-2.5651,0,0,-2.5125,-2.5105,-2.5185,-2.5202,-2.5177,-2.5204,-2.5213,-2.5356,-2.5371,-2.5418,-2.5428,-2.5444,-2.5469,-2.547,-2.565,-2.5651,0,0,0,-2.51,-2.5099,-2.5138,-2.5195,-2.522,-2.5208,-2.5219,-2.5365,-2.5379,-2.543,-2.5446,-2.547,-2.5472,-2.5649,-2.565,-2.5665,0,0,0,-2.5096,-2.5085,-2.5134,-2.5123,-2.5217,-2.5294,-2.5224,-2.5369,-2.5386,-2.5445,-2.547,-2.5474,-2.5649,-2.565,-2.5663,-2.5675,0,0,0,-2.5073,-2.5082,-2.5102,-2.5122,-2.5182,-2.5292,-2.5314,-2.5373,-2.5395,-2.5468,-2.5474,-2.5648,-2.565,-2.5661,-2.5672,-2.5717,0,0,0,-2.5043,-2.5113,-2.5101,-2.5186,-2.5181,-2.5299,-2.5314,-2.5404,-2.5467,-2.5471,-2.5649,-2.565,-2.566,-2.567,-2.5715,-2.5751,-2.5764,0,0,-2.512,-2.5122,-2.5173,-2.5167,-2.5282,-2.5279,-2.5398,-2.5476,-2.5502,-2.56,-2.5605,-2.5663,-2.5672,-2.5716,-2.5844,-2.5854,0,0,0,-2.5191,-2.5227,-2.5262,-2.5321,-2.5381,-2.5435,-2.5497,-2.5527,-2.5611,-2.5548,-2.5692,-2.5698,-2.5725,-2.5743,-2.5752,-2.5777,-2.5658,-2.5658,-2.5657,-2.5271,-2.53,-2.5387,-2.5433,-2.5491,-2.5554,-2.5604,-2.5655,-2.5668,-2.5702,-2.5731,-2.5804,-2.5825,-2.5831,-2.5857,-2.5752,-2.5752,-2.5752,-2.5752,-2.5387,-2.5444,-2.5459,-2.5549,-2.558,-2.5657,-2.5721,-2.5728,-2.5806,-2.5784,-2.581,-2.5784,-2.5841,-2.5865,-2.5754,-2.5754,-2.5753,-2.5753,-2.5753,-2.5443,-2.5475,-2.5509,-2.5597,-2.5663,-2.5708,-2.5781,-2.5807,-2.5833,-2.5858,-2.5892,-2.5892,-2.5895,-2.5872,-2.5872,-2.5873,-2.5873,-2.5873,-2.5873,-2.5488,-2.5525,-2.5582,-2.5652,-2.5694,-2.5752,-2.5818,-2.586,-2.5915,-2.5928,-2.5928,-2.5939,-2.5841,-2.5816,-2.5877,-2.5877,-2.5876,-2.5876,-2.5875,-2.5594,-2.5574,-2.5662,-2.5704,-2.5789,-2.5853,-2.5886,-2.597,-2.601,-2.6045,-2.6051,-2.5974,-2.5978,-2.5971,-2.5951,-2.6044,-2.6044,-2.6044,-2.6044,-2.5641,-2.5645,-2.5742,-2.5806,-2.5873,-2.5912,-2.6013,-2.6065,-2.6117,-2.6143,-2.6134,-2.6109,-2.6101,-2.611,-2.61,-2.6081,-2.6205,-2.6206,-2.6206,-2.5709,-2.5721,-2.58,-2.5848,-2.5917,-2.5977,-2.6073,-2.6149,-2.6204,-2.6213,-2.6165,-2.6158,-2.6118,-2.6104,-2.6111,-2.6095,-2.6061,0,0]},{"header":{"parameterUnit":"m.s-1","parameterCategory":1,"la1":30.2992,"la2":30.254,"lo1":-89.0895,"lo2":-89.0443,"dy":0.0025,"dx":0.0025,"nx":19,"ny":19,"refTime":"2026-04-14T21:00:00:Z","depth":0,"parameterNumber":3,"parameterNumberName":"V-component_of_WINDS"},"data":[0,0,0,5.5286,5.5288,5.5358,5.5358,5.5464,5.5465,0,0,0,0,0,0,0,0,0,0,0,5.5277,5.5278,5.5286,5.5288,5.5358,5.5358,5.5464,5.5465,0,0,0,0,0,0,0,0,0,0,0,5.5276,5.5277,5.5279,5.5288,5.5358,5.5358,5.5463,5.5404,0,0,0,0,0,0,0,0,0,0,5.5333,5.5336,5.5277,5.5279,5.5289,5.5358,5.5358,5.5401,5.5408,5.5439,0,5.5472,0,5.5471,5.5473,5.5474,0,0,0,5.5278,5.5331,5.5339,5.5279,5.5289,5.5358,5.5324,5.5405,5.5412,5.5448,5.5474,5.5477,5.5472,5.5474,5.5475,5.5692,5.5694,0,0,5.5275,5.5295,5.5334,5.5345,5.5338,5.5322,5.5326,5.5409,5.5437,5.5474,5.5479,5.5474,5.5475,5.5476,5.5691,5.5693,0,0,0,5.527,5.5293,5.5299,5.5341,5.5353,5.5324,5.5329,5.5433,5.5434,5.548,5.5475,5.5475,5.5477,5.5689,5.5692,5.5784,0,0,0,5.5267,5.529,5.5298,5.5311,5.5352,5.5394,5.5352,5.5428,5.5437,5.5475,5.5475,5.5478,5.5688,5.5691,5.5778,5.5823,0,0,0,5.5268,5.529,5.5304,5.5312,5.5343,5.5393,5.5398,5.5429,5.5434,5.5474,5.5478,5.5687,5.569,5.5772,5.5814,5.5887,0,0,0,5.5274,5.5384,5.5306,5.5426,5.5343,5.545,5.5397,5.5475,5.552,5.5476,5.5688,5.5691,5.5771,5.5809,5.5881,5.595,5.5982,0,0,5.5423,5.5402,5.5472,5.5404,5.5531,5.5438,5.5577,5.5598,5.5582,5.5656,5.5661,5.578,5.5814,5.5885,5.6151,5.6176,0,0,0,5.5526,5.5576,5.5605,5.565,5.567,5.5691,5.5689,5.5696,5.5758,5.5625,5.5825,5.5845,5.5886,5.5918,5.5939,5.5973,5.5707,5.5707,5.5707,5.5765,5.5741,5.5854,5.5839,5.5883,5.588,5.5913,5.5923,5.5883,5.5931,5.5953,5.6117,5.6156,5.6172,5.6207,5.5988,5.5989,5.5989,5.5989,5.5981,5.6047,5.5996,5.6086,5.606,5.6135,5.6136,5.6107,5.6171,5.6099,5.6134,5.6056,5.62,5.6229,5.5996,5.5995,5.5994,5.5993,5.5993,5.6134,5.6162,5.6171,5.6234,5.6285,5.6265,5.6331,5.6304,5.6278,5.6313,5.6332,5.6331,5.6325,5.6324,5.6325,5.6326,5.6326,5.6326,5.6327,5.6289,5.6296,5.6356,5.6388,5.6414,5.6444,5.6443,5.6467,5.6486,5.6461,5.6461,5.6417,5.6219,5.617,5.6335,5.6334,5.6333,5.6332,5.6331,5.6515,5.646,5.6552,5.6578,5.6613,5.6666,5.6631,5.6682,5.6698,5.6731,5.668,5.6539,5.6514,5.6497,5.6456,5.6686,5.6686,5.6686,5.6686,5.6643,5.6629,5.6718,5.6761,5.6801,5.6779,5.6883,5.6883,5.6875,5.6883,5.6846,5.6789,5.6773,5.6758,5.6735,5.6696,5.6982,5.6982,5.6982,5.6781,5.6769,5.6863,5.6857,5.6883,5.6905,5.7001,5.7052,5.703,5.6993,5.6888,5.6875,5.6783,5.6755,5.6715,5.668,5.6608,0,0]}]]